Regional Weather Roundup
Issued by NWS Charleston, SC

Current Version | Previous Version | Graphics & Text | Print | Product List | Glossary On
Versions: 1 2 3 4 5 6 7 8 9 10 11 12 13 14 15 16 17 18 19 20 21 22 23 24 25 26 27 28 29 30 31 32 33 34 35 36 37 38 39 40 41 42 43 44 45 46 47 48 49 50
553
ASUS42 KCHS 262228
RWRCHS

REGIONAL WEATHER ROUNDUP
NATIONAL WEATHER SERVICE CHARLESTON SC
600 PM EDT MON SEP 26 2016

NOTE: "FAIR" INDICATES FEW OR NO CLOUDS BELOW 12,000 FEET WITH NO
SIGNIFICANT WEATHER AND/OR OBSTRUCTIONS TO VISIBILITY.

NOT ALL STATIONS ARE QUALITY CONTROLLED. USE DATA WITH CAUTION...
ESPECIALLY DEWPOINT OBSERVATIONS.

SCZ027-030-031-034>040-042>050-262300-
...SOUTHEAST SOUTH CAROLINA...

CITY           SKY/WX    TMP DP  RH WIND       PRES   REMARKS
N CHARLESTON   CLOUDY    76  72  87 CALM      30.00R
WATERFRONT PRK   N/A     76  74  93 VRB3      29.98F
MOUNT PLEASANT MOCLDY    79  73  83 SE5       30.00S
JOHNS ISLAND   FAIR      75  73  94 CALM      30.00S
PINOPOLIS        N/A     81  73  78 E6        29.94S
MONCKS CORNER  FAIR      77  73  88 CALM      30.00F
SUMMERVILLE    FAIR      77  73  88 SE3       30.01
BEAUFORT MCAS  CLOUDY    77  71  82 E6        29.99S
BEAUFORT ARPT  FAIR      73  72  94 NE6       29.97F
HILTON HEAD IS PTSUNNY   81  73  78 E6G13     29.99S
WALTERBORO     CLOUDY    79  77  94 E7        30.01S
ALLENDALE      FAIR      79  70  73 E6        30.01R

...SOUTHERN MIDLANDS AND PEE DEE...

CITY           SKY/WX    TMP DP  RH WIND       PRES   REMARKS
GEORGETOWN     FAIR      77  70  78 E7        30.03R
KINGSTREE      FAIR      72  70  94 CALM      30.01S
ORANGEBURG     SUNNY     79  70  74 SE3       30.01R
BARNWELL       NOT AVBL
AIKEN          FAIR      79  68  69 SE7       30.04S
MANNING        RAIN      72  66  83 CALM      30.01S
COLUMBIA       MOSUNNY   83  70  64 SE12      29.99S
SUMTER         PTSUNNY   78  69  71 W5        29.99S
FLORENCE       CLOUDY    80  70  71 S8        30.01R
MYRTLE BEACH   MOSUNNY   81  66  61 SE12      30.03F
N MYRTLE BEACH PTSUNNY   79  71  76 E10       30.02S

$$

GAZ063-065-086>088-099>101-113>116-118-119-134>141-150-262300-
...SOUTHEAST GEORGIA...

CITY           SKY/WX    TMP DP  RH WIND       PRES   REMARKS
SAVANNAH ARPT  PTSUNNY   80  68  66 E12       29.98F
HUNTER AAF     CLOUDY    81  75  83 E8        29.96F
FORT STEWART   SUNNY     80  70  70 E8        29.96S
STATESBORO     SUNNY     80  71  74 CALM      30.00R
SYLVANIA       NOT AVBL
CLAXTON        FAIR      82  73  73 CALM      29.99R HAZE

...CSRA...CENTRAL AND FAR SOUTHEAST GEORGIA...

CITY           SKY/WX    TMP DP  RH WIND       PRES   REMARKS
THOMSON        MOSUNNY   84  70  62 CALM      30.04R
AUGUSTA-BUSH   MOSUNNY   82  71  69 SE12      29.98S
AUGUSTA-DANIEL MOSUNNY   84  69  60 SE9       29.99S
SWAINSBORO     FAIR      77  70  78 W5        30.01S
VIDALIA        MOSUNNY   82  73  74 E7        29.99S
EASTMAN        FAIR      87  56  35 E8        30.00R
HAZLEHURST     FAIR      85  71  63 W3        29.97S HX  90
ALMA           MOSUNNY   84  68  58 E7        29.97R
WAYCROSS       SUNNY     86  71  60 E10G18    29.97S HX  91
JESUP          FAIR      82  73  74 E9        29.99R
BAXLEY         FAIR      84  73  70 E5        29.98S HX  91
BRUNSWICK      MOSUNNY   79  73  83 E10       29.98S
SAINT SIMONS   MOSUNNY   81  71  71 NE12      29.96F

$$

SCZ027-028-034-036>038-045-046-048>050-GAZ119-141-262300-
...LAKE AND SUPPLEMENTAL COASTAL OBSERVATIONS...

STATION/POSITION TIME  TEMP    WIND        PRES    WAVE   SWELL
                       AIR SEA DIR/SP/G            HT/PER HT/PER/DIR
                 (UTC) (F)     (DEG/KT/KT) (MB)    (FT/S) (FT/S/D)
WINYAH BAY       2145   80      90/ 11     1015.0F
LAKE MURRAY      2120   84     150/  7/  8 1014.9F
ACE BASIN NERRS  2145   72      70/  1     1016.0S
FORT PULASKI     2200   79 81   70/ 13/ 15 1015.9
SAPELO ISLAND    2200   81      60/ 10     1015.0

$$

ANZ835-935-AMZ111-154-330-350-352-354-370-450-454-472-262300-
...C-MAN AND BUOY OBSERVATIONS...

STATION/POSITION TIME  TEMP    WIND        PRES    WAVE   SWELL
                       AIR SEA DIR/SP/G            HT/PER HT/PER/DIR
                 (UTC) (F)     (DEG/KT/KT) (MB)    (FT/S) (FT/S/D)
BUOY 41004       2150   77 82  110/ 12/ 14 1015.0F   4/ 9   3/110/ 9
BUOY 41008       2150   79 82   80/ 14/ 17 1014.1F   4/ 6   2/ 90/ 7
FOLLY BEACH CMAN 2200   77     150/  3/  4 1015.9F
CAPERS NEARSHORE 2108   79 81  130/  8/ 12 1015.3F
FRIPP NEARSHORE  2108   78 81   70/ 14/ 16 1015.6F


STATION/POSITION TIME  TEMP    WIND        PRES    WAVE   SWELL
                       AIR SEA DIR/SP/G            HT/PER HT/PER/DIR
                 (UTC) (F)     (DEG/KT/KT) (MB)    (FT/S) (FT/S/D)
5E ST. MARYS GA  2201      82                N/A     4/10
FRYING PAN BUOY  2200   80 82   80/ 12/ 16 1015.8
BUOY 41025       2150   79 79  140/ 12/ 14 1017.5F   3/ 8   2/ 80/ 8
CAPE LOOKOUT NC  2200   77     100/ 10/ 11 1016.9F
BUOY 41002       2150   79 83  100/ 17/ 19 1016.5R   6/ 8   2/ 60/ 9
BUOY 41010       NOT AVBL
ST AUGUSTINE FL  2200   80 85  360/ 11/ 12 1014.6R


$$




USA.gov is the U.S. government's official web portal to all federal, state and local government web resources and services.